This is the latest recevied weather packets stored in our database for station/object N5XJB. If no packets are shown the sender has not sent any weather packets the latest 10 day(s).
| Time | Temp. | Humidity | Pressure | Rain* | Wind** | Luminosity | Snow |
|---|---|---|---|---|---|---|---|
| 1777831803 | 27.78° C | 36% | 1023 hPa | 0 mm | - | 902 W/m² | - |
| 1777831501 | 27.78° C | 36% | 1023 hPa | 0 mm | - | 900 W/m² | - |
| 1777831197 | 27.78° C | 36% | 1023 hPa | 0 mm | - | 890 W/m² | - |
| 1777830895 | 27.22° C | 35% | 1023 hPa | 0 mm | - | 900 W/m² | - |
| 1777830591 | 26.67° C | 35% | 1023.3 hPa | 0 mm | - | 895 W/m² | - |
| 1777830289 | 26.67° C | 36% | 1023.3 hPa | 0 mm | - | 891 W/m² | - |
| 1777829984 | 27.22° C | 36% | 1023.7 hPa | 0 mm | - | 884 W/m² | - |
| 1777829680 | 27.22° C | 35% | 1023.7 hPa | 0 mm | - | 881 W/m² | - |
| 1777829377 | 28.33° C | 37% | 1023.7 hPa | 0 mm | - | 882 W/m² | - |
| 1777829075 | 27.22° C | 38% | 1024 hPa | 0 mm | - | 870 W/m² | - |
| 1777828771 | 26.67° C | 37% | 1023.7 hPa | 0 mm | - | 862 W/m² | - |
| 1777828467 | 27.78° C | 38% | 1024 hPa | 0 mm | - | 865 W/m² | - |
| 1777828165 | 27.22° C | 39% | 1024 hPa | 0 mm | - | 852 W/m² | - |
| 1777827861 | 28.33° C | 38% | 1023.7 hPa | 0 mm | - | 842 W/m² | - |
| 1777827559 | 28.33° C | 38% | 1023.7 hPa | 0 mm | - | 842 W/m² | - |
| 1777827256 | 27.78° C | 38% | 1023.7 hPa | 0 mm | - | 837 W/m² | - |
| 1777826952 | 27.22° C | 38% | 1023.7 hPa | 0 mm | - | 826 W/m² | - |
| 1777826649 | 27.22° C | 37% | 1024 hPa | 0 mm | - | 819 W/m² | - |
| 1777826345 | 27.78° C | 40% | 1024 hPa | 0 mm | - | 806 W/m² | - |
| 1777826043 | 26.67° C | 39% | 1023.7 hPa | 0 mm | - | 796 W/m² | - |
| 1777825740 | 26.67° C | 39% | 1024.3 hPa | 0 mm | - | 787 W/m² | - |
| 1777825438 | 26.11° C | 40% | 1024 hPa | 0 mm | - | 775 W/m² | - |
| 1777825134 | 25.56° C | 44% | 1024.3 hPa | 0 mm | - | 761 W/m² | - |
| 1777824831 | 26.11° C | 42% | 1023.7 hPa | 0 mm | - | 755 W/m² | - |
| 1777824528 | 26.11° C | 40% | 1024 hPa | 0 mm | - | 742 W/m² | - |
* Rain latest hour (hover to see other rain measurements)
** Current wind speed in m/s (hover to see current wind gust speed)